User: anonymous   Login
Location: Gesvres
(49.0440°N, 2.8518°E)
Time: 14:49:54
(UTC+00:00)
Language:

Cosmos 1408 - Orbit

View from above orbital plane
View from above orbital plane
View from above satellite
View from above satellite

Ground track
Ground track

The orbit data is extracted from the following two-line orbital elements,

1 13552U 82092A   23160.74884814  .00013799  00000-0  32185-3 0  9994
2 13552  82.5689 267.9336 0020781 263.0324  96.8560 15.41857125 87604
Epoch (UTC): 09 June 2023 17:58:20
Eccentricity: 0.0020781
inclination: 82.5689°
perigee height: 426 km
apogee height: 455 km
right ascension of ascending node: 267.9336°
argument of perigee: 263.0324°
revolutions per day: 15.41857125
mean anomaly at epoch: 96.8560°
orbit number at epoch: 8760

The dashed part of the orbit path shows where the satellite is in the earth's shadow,  

DLR